GEFSMW_850_meantemp_024.txt.gz
Temperature
2 1 0 -0 -1 -1 -1 -1 -1 -1 -1 -1 -2 -2 -2 -2 -2 -2 -1 -1 -1 -1 -2 -2 -1 -0 0 1 1 1 3 4 5 6 7 9 9 10 10 10 11 11 12
2 1 -1 -1 -2 -3 -3 -2 -2 -3 -3 -4 -4 -4 -4 -4 -4 -4 -3 -2 -2 -3 -3 -4 -3 -3 -2 -1 -1 -0 0 2 3 3 5 8 10 10 10 10 10 11 11
1 0 -1 -2 -3 -4 -4 -4 -4 -4 -5 -5 -5 -5 -5 -5 -5 -5 -5 -4 -4 -4 -5 -5 -5 -4 -4 -4 -3 -2 -2 -1 0 1 3 6 10 11 11 10 10 10 11
1 -1 -2 -3 -4 -5 -5 -5 -5 -6 -6 -6 -7 -7 -7 -7 -7 -7 -7 -6 -6 -6 -6 -6 -5 -5 -5 -4 -4 -3 -3 -2 -2 -0 1 3 5 8 10 10 10 10 11
-0 -1 -3 -4 -5 -5 -6 -6 -6 -7 -7 -7 -8 -8 -8 -8 -8 -8 -7 -7 -6 -6 -6 -6 -6 -6 -5 -5 -4 -3 -3 -2 -2 -1 -1 1 3 5 7 9 10 10 10
-0 -2 -3 -4 -5 -6 -7 -7 -7 -8 -8 -8 -8 -9 -9 -9 -8 -8 -8 -8 -8 -7 -7 -7 -7 -7 -6 -5 -4 -3 -3 -2 -2 -2 -1 -1 1 3 6 7 9 10 10
-1 -3 -4 -5 -6 -7 -7 -8 -8 -9 -9 -9 -9 -9 -9 -9 -9 -9 -9 -9 -9 -8 -8 -8 -8 -7 -6 -5 -4 -4 -3 -2 -2 -1 -1 -1 0 2 4 5 7 9 10
-2 -3 -4 -6 -7 -7 -8 -9 -9 -9 -10 -10 -10 -10 -10 -10 -10 -10 -10 -10 -10 -9 -9 -9 -8 -7 -7 -6 -5 -4 -3 -2 -2 -1 -1 -1 0 1 2 4 5 7 8
-3 -4 -5 -6 -7 -8 -8 -9 -10 -10 -10 -11 -11 -11 -11 -11 -11 -11 -11 -11 -10 -10 -9 -9 -8 -8 -7 -6 -6 -5 -4 -3 -2 -1 -1 -0 0 1 2 3 4 5 7
-3 -4 -5 -7 -8 -8 -9 -9 -10 -10 -11 -11 -11 -12 -12 -12 -12 -12 -12 -11 -11 -11 -10 -9 -9 -8 -7 -7 -6 -6 -5 -4 -3 -2 -1 -0 0 1 2 3 3 4 5
-4 -5 -6 -7 -8 -9 -9 -10 -10 -11 -11 -12 -12 -12 -12 -12 -12 -12 -12 -12 -12 -11 -11 -10 -9 -9 -8 -7 -7 -6 -6 -5 -4 -2 -1 -1 0 1 1 2 3 4 4
-4 -5 -6 -7 -8 -9 -10 -10 -11 -11 -11 -12 -12 -12 -12 -13 -13 -13 -13 -13 -13 -12 -12 -11 -10 -9 -8 -7 -7 -7 -6 -6 -5 -3 -2 -1 -0 0 1 2 2 3 4
-5 -6 -7 -8 -9 -10 -10 -11 -11 -11 -12 -12 -12 -13 -13 -13 -13 -13 -13 -13 -13 -13 -12 -11 -11 -10 -9 -8 -7 -7 -7 -6 -5 -4 -4 -3 -2 -0 0 1 2 3 3
-5 -6 -7 -8 -9 -10 -11 -11 -11 -12 -12 -12 -13 -13 -13 -14 -14 -14 -14 -13 -13 -13 -13 -12 -11 -10 -9 -8 -8 -7 -7 -7 -6 -5 -4 -3 -3 -2 -0 0 1 2 3
-6 -7 -8 -9 -10 -10 -11 -11 -11 -11 -12 -12 -12 -13 -13 -13 -14 -14 -14 -14 -13 -13 -13 -13 -12 -11 -10 -9 -8 -7 -8 -7 -7 -6 -5 -4 -3 -2 -1 -0 0 1 2
-7 -8 -9 -9 -10 -10 -10 -10 -11 -11 -12 -12 -12 -13 -13 -13 -14 -14 -14 -14 -14 -13 -13 -13 -13 -12 -11 -10 -8 -8 -8 -8 -8 -7 -6 -5 -4 -3 -2 -1 -1 -0 1
-7 -8 -9 -10 -10 -10 -10 -10 -10 -11 -11 -12 -12 -12 -13 -13 -14 -14 -14 -14 -14 -14 -13 -13 -13 -12 -12 -10 -9 -8 -8 -8 -8 -8 -7 -7 -6 -5 -3 -3 -2 -1 -1
-8 -9 -9 -9 -9 -9 -9 -10 -10 -10 -11 -11 -12 -12 -13 -14 -14 -14 -14 -14 -14 -14 -14 -14 -13 -13 -12 -11 -9 -9 -9 -9 -9 -8 -8 -7 -7 -6 -5 -4 -3 -3 -2
-8 -8 -8 -9 -9 -9 -9 -10 -10 -10 -11 -11 -12 -13 -14 -14 -14 -14 -14 -14 -15 -14 -14 -14 -13 -13 -12 -11 -10 -9 -9 -9 -9 -8 -8 -8 -7 -7 -6 -5 -5 -5 -4
-7 -7 -8 -9 -9 -9 -10 -10 -10 -10 -11 -12 -12 -13 -14 -14 -15 -15 -15 -15 -15 -14 -14 -14 -13 -13 -12 -12 -11 -10 -9 -9 -9 -9 -8 -8 -8 -8 -7 -7 -7 -7 -6
-7 -7 -8 -8 -9 -9 -9 -9 -10 -11 -11 -11 -12 -13 -14 -14 -15 -15 -15 -15 -15 -14 -14 -14 -13 -13 -13 -12 -11 -11 -10 -10 -9 -9 -9 -9 -9 -9 -9 -9 -9 -9 -8
-7 -7 -8 -8 -9 -9 -9 -10 -10 -11 -11 -11 -12 -13 -13 -14 -14 -14 -15 -15 -14 -14 -14 -14 -13 -13 -13 -12 -12 -11 -11 -10 -10 -10 -10 -10 -10 -10 -10 -10 -10 -9 -9
-7 -7 -8 -8 -8 -9 -10 -10 -10 -10 -11 -11 -12 -13 -14 -14 -14 -14 -14 -14 -14 -14 -14 -14 -13 -13 -13 -13 -12 -12 -11 -11 -11 -11 -11 -11 -10 -10 -10 -11 -10 -10 -10
-7 -7 -8 -8 -8 -9 -9 -10 -10 -10 -11 -12 -13 -14 -14 -14 -14 -14 -14 -14 -14 -14 -13 -13 -13 -13 -13 -13 -13 -12 -12 -12 -12 -12 -12 -12 -12 -11 -12 -11 -11 -11 -11
-7 -7 -8 -8 -8 -9 -9 -9 -10 -10 -11 -12 -13 -14 -14 -13 -14 -14 -14 -14 -14 -14 -14 -14 -14 -13 -13 -13 -13 -13 -13 -13 -13 -13 -13 -13 -13 -13 -13 -13 -13 -13 -12
-7 -7 -7 -8 -8 -9 -9 -9 -10 -10 -11 -12 -13 -13 -13 -13 -14 -14 -14 -14 -14 -14 -14 -14 -14 -14 -14 -14 -14 -14 -14 -14 -14 -13 -14 -14 -14 -14 -14 -14 -14 -14 -14

GEFSMW_850_meantemp_030.txt.gz
Temperature
4 3 2 1 -0 -1 -1 -2 -3 -3 -4 -4 -4 -4 -4 -4 -5 -5 -5 -6 -6 -6 -6 -6 -6 -6 -6 -5 -5 -5 -4 -3 -2 -1 1 4 6 7 9 10 10 11 11
4 3 2 0 -1 -2 -3 -3 -4 -4 -5 -5 -6 -6 -6 -6 -6 -6 -6 -6 -6 -6 -6 -6 -7 -7 -6 -6 -6 -5 -5 -4 -3 -3 -2 -0 3 6 8 9 10 10 11
3 2 1 -0 -2 -3 -3 -4 -5 -5 -6 -6 -6 -6 -6 -6 -6 -6 -7 -7 -7 -7 -7 -7 -7 -7 -7 -7 -7 -6 -5 -5 -4 -3 -3 -1 0 0 6 8 9 9 10
3 2 1 -1 -2 -3 -4 -4 -5 -6 -6 -7 -7 -8 -8 -8 -8 -8 -8 -8 -8 -8 -8 -8 -8 -8 -8 -8 -7 -7 -6 -5 -4 -4 -3 -2 -2 -1 0 6 8 8 9
3 1 0 -1 -3 -4 -4 -5 -6 -6 -7 -7 -8 -8 -8 -9 -9 -9 -9 -9 -9 -9 -9 -9 -9 -9 -9 -8 -8 -7 -7 -6 -5 -4 -4 -3 -2 -2 -1 -0 5 7 8
2 1 -1 -2 -3 -4 -5 -5 -6 -7 -7 -7 -8 -9 -9 -9 -9 -9 -10 -10 -10 -10 -10 -10 -10 -10 -9 -9 -8 -8 -7 -6 -6 -5 -4 -4 -3 -2 -2 -1 0 2 6
1 -0 -1 -3 -4 -4 -5 -6 -6 -7 -7 -8 -8 -9 -9 -10 -10 -10 -10 -10 -10 -10 -10 -11 -11 -10 -10 -9 -9 -8 -7 -7 -6 -5 -5 -4 -4 -3 -2 -1 -1 0 3
1 -1 -2 -3 -4 -5 -5 -6 -6 -7 -8 -8 -9 -9 -10 -10 -10 -11 -11 -11 -11 -11 -11 -11 -11 -11 -11 -10 -9 -9 -8 -7 -6 -6 -5 -5 -4 -3 -2 -1 -1 -0 1
-0 -1 -2 -3 -4 -5 -5 -6 -7 -7 -8 -9 -9 -9 -10 -10 -11 -11 -11 -11 -11 -12 -12 -12 -12 -11 -11 -10 -10 -9 -8 -7 -7 -6 -6 -6 -5 -4 -3 -2 -1 -1 0
-1 -2 -3 -4 -4 -5 -6 -6 -7 -8 -8 -9 -9 -10 -10 -11 -11 -11 -12 -12 -12 -12 -12 -12 -12 -12 -11 -11 -10 -9 -8 -8 -7 -7 -6 -6 -5 -4 -3 -2 -1 -1 -0
-1 -2 -3 -4 -5 -5 -6 -7 -8 -8 -9 -9 -9 -10 -11 -11 -12 -12 -12 -12 -12 -12 -12 -12 -12 -12 -12 -11 -11 -9 -9 -8 -7 -7 -7 -6 -6 -5 -4 -3 -2 -1 0
-2 -3 -4 -4 -5 -6 -6 -7 -8 -9 -9 -9 -10 -10 -11 -11 -12 -12 -12 -13 -13 -13 -13 -13 -13 -13 -12 -12 -11 -10 -9 -8 -8 -8 -7 -7 -6 -5 -4 -3 -2 -1 -0
-2 -3 -4 -5 -5 -6 -7 -8 -8 -9 -9 -9 -10 -10 -11 -12 -12 -13 -13 -13 -13 -13 -13 -13 -13 -13 -12 -12 -11 -10 -9 -8 -8 -8 -8 -7 -6 -5 -4 -3 -2 -1 -0
-3 -4 -5 -5 -6 -7 -7 -8 -8 -9 -9 -9 -10 -11 -11 -12 -13 -13 -13 -13 -13 -13 -13 -13 -13 -13 -13 -12 -11 -10 -9 -8 -8 -8 -8 -7 -6 -6 -5 -4 -2 -2 -1
-4 -4 -5 -6 -6 -7 -8 -8 -8 -9 -9 -10 -10 -11 -12 -13 -13 -14 -14 -14 -14 -14 -14 -14 -13 -13 -13 -12 -11 -9 -9 -8 -8 -8 -8 -7 -7 -6 -5 -4 -3 -2 -1
-4 -5 -5 -6 -6 -7 -8 -8 -8 -9 -9 -10 -11 -12 -13 -13 -13 -14 -14 -14 -14 -14 -14 -14 -13 -13 -13 -12 -10 -9 -9 -8 -8 -8 -8 -7 -7 -7 -6 -5 -4 -3 -2
-4 -5 -6 -6 -7 -7 -8 -8 -8 -9 -10 -11 -12 -12 -13 -13 -13 -14 -13 -13 -13 -14 -14 -14 -13 -13 -13 -11 -10 -9 -9 -9 -9 -8 -8 -8 -8 -7 -7 -6 -5 -4 -4
-4 -5 -6 -6 -7 -7 -8 -8 -8 -9 -10 -11 -12 -12 -13 -13 -13 -13 -13 -13 -13 -13 -13 -13 -13 -13 -12 -11 -10 -9 -9 -9 -9 -9 -9 -9 -8 -8 -8 -7 -7 -6 -5
-5 -5 -6 -6 -7 -7 -8 -8 -8 -10 -11 -11 -12 -12 -13 -13 -13 -13 -13 -13 -13 -13 -13 -13 -13 -13 -12 -11 -10 -10 -10 -10 -9 -9 -9 -9 -9 -9 -8 -8 -8 -7 -6
-5 -5 -6 -6 -7 -7 -7 -8 -9 -10 -11 -11 -12 -12 -13 -13 -13 -13 -13 -13 -13 -13 -13 -13 -13 -13 -12 -12 -11 -10 -10 -10 -10 -10 -10 -10 -9 -9 -9 -9 -9 -9 -8
-5 -5 -6 -6 -7 -7 -8 -9 -9 -10 -11 -11 -12 -12 -13 -13 -13 -13 -13 -13 -13 -13 -13 -13 -13 -13 -12 -12 -11 -11 -11 -11 -11 -11 -11 -11 -10 -10 -10 -10 -10 -10 -9
-5 -5 -6 -6 -7 -7 -8 -9 -9 -10 -10 -11 -12 -12 -13 -13 -13 -13 -13 -13 -13 -13 -13 -13 -13 -13 -13 -12 -12 -11 -11 -11 -11 -11 -11 -11 -11 -11 -11 -11 -11 -10 -9
-5 -5 -6 -6 -6 -7 -8 -9 -9 -9 -10 -11 -12 -12 -12 -13 -13 -13 -13 -13 -13 -13 -13 -13 -13 -13 -13 -13 -13 -12 -12 -12 -12 -12 -12 -12 -12 -12 -12 -12 -11 -11 -10
-5 -5 -6 -6 -6 -7 -8 -9 -9 -9 -9 -11 -12 -12 -12 -13 -13 -13 -14 -13 -13 -13 -13 -13 -13 -13 -13 -13 -13 -13 -13 -13 -13 -13 -13 -13 -13 -13 -13 -12 -12 -12 -12
-5 -5 -6 -6 -7 -7 -8 -8 -9 -9 -9 -11 -12 -12 -13 -13 -13 -13 -14 -13 -13 -13 -13 -13 -13 -13 -13 -13 -13 -13 -13 -13 -13 -13 -13 -13 -13 -14 -14 -14 -13 -13 -12
-5 -5 -5 -6 -6 -7 -7 -8 -8 -8 -9 -11 -11 -12 -12 -13 -13 -13 -13 -14 -14 -13 -14 -14 -13 -14 -13 -13 -13 -13 -13 -13 -14 -14 -14 -14 -14 -15 -15 -15 -15 -14 -14

GEFSMW_850_meantemp_036.txt.gz
Temperature
3 2 2 2 1 0 -1 -2 -2 -2 -2 -2 -3 -3 -3 -4 -4 -5 -6 -6 -7 -7 -8 -8 -8 -8 -8 -8 -8 -8 -8 -7 -7 -6 -5 -1 1 2 2 3 4 6 7
3 2 2 1 0 -1 -2 -3 -3 -3 -3 -4 -4 -5 -5 -5 -6 -6 -7 -7 -8 -8 -9 -9 -9 -9 -9 -9 -9 -9 -9 -8 -7 -7 -6 -4 -3 -0 2 2 3 4 5
3 2 2 0 -1 -2 -3 -3 -3 -4 -4 -5 -5 -5 -5 -5 -6 -7 -7 -8 -8 -9 -10 -10 -10 -10 -10 -10 -10 -10 -10 -9 -8 -7 -7 -5 -4 -5 -2 -0 1 2 3
2 2 1 -1 -2 -3 -3 -3 -4 -4 -5 -5 -6 -7 -7 -7 -8 -8 -9 -9 -9 -9 -10 -10 -11 -11 -11 -11 -10 -10 -10 -10 -9 -8 -7 -7 -6 -5 -4 -3 -1 0 1
2 1 -0 -1 -2 -3 -3 -4 -4 -5 -5 -6 -7 -7 -8 -8 -9 -9 -9 -9 -10 -10 -11 -11 -11 -11 -11 -11 -11 -11 -10 -10 -10 -9 -8 -7 -6 -6 -5 -5 -3 -1 1
1 1 -0 -1 -2 -3 -4 -4 -5 -5 -6 -7 -7 -8 -8 -9 -9 -10 -10 -10 -11 -11 -11 -12 -12 -12 -12 -12 -11 -11 -11 -10 -10 -9 -8 -8 -7 -6 -6 -6 -5 -4 -2
1 0 -1 -2 -3 -4 -4 -5 -5 -6 -7 -7 -8 -8 -9 -9 -10 -10 -11 -11 -12 -12 -12 -12 -12 -13 -12 -12 -12 -11 -11 -10 -10 -9 -9 -8 -7 -7 -6 -6 -6 -5 -4
1 -0 -2 -3 -4 -4 -5 -5 -6 -6 -7 -7 -8 -9 -9 -10 -10 -11 -12 -12 -12 -13 -13 -13 -13 -13 -13 -12 -12 -11 -11 -10 -10 -9 -9 -8 -7 -7 -7 -6 -6 -5 -4
-0 -1 -2 -3 -4 -5 -5 -6 -6 -7 -7 -8 -9 -9 -10 -11 -11 -12 -12 -12 -13 -13 -13 -13 -13 -13 -13 -13 -12 -12 -11 -10 -10 -9 -9 -8 -8 -7 -7 -6 -6 -5 -4
-1 -2 -3 -4 -4 -5 -5 -6 -6 -7 -8 -9 -9 -10 -11 -11 -12 -12 -13 -13 -13 -13 -13 -14 -14 -13 -13 -13 -12 -12 -11 -10 -9 -9 -9 -8 -8 -7 -7 -7 -6 -5 -5
-2 -3 -4 -4 -5 -5 -5 -6 -7 -8 -8 -9 -10 -11 -11 -12 -12 -13 -13 -13 -13 -13 -14 -14 -14 -14 -13 -13 -12 -12 -11 -10 -9 -9 -9 -8 -8 -7 -7 -7 -6 -5 -5
-3 -3 -4 -4 -4 -5 -5 -6 -7 -8 -9 -10 -10 -11 -12 -12 -13 -13 -13 -13 -13 -13 -13 -14 -14 -13 -13 -13 -12 -11 -11 -10 -9 -9 -8 -8 -8 -7 -7 -6 -6 -5 -5
-3 -3 -3 -4 -4 -5 -6 -7 -8 -9 -9 -10 -10 -11 -12 -13 -13 -13 -13 -13 -13 -13 -13 -13 -13 -13 -13 -12 -12 -11 -10 -10 -9 -9 -8 -8 -8 -7 -7 -6 -6 -5 -5
-3 -3 -3 -4 -4 -5 -6 -7 -8 -9 -9 -10 -11 -11 -12 -13 -13 -13 -13 -13 -13 -13 -13 -13 -13 -13 -12 -12 -11 -10 -10 -9 -9 -9 -8 -8 -8 -8 -7 -7 -6 -6 -5
-3 -3 -3 -4 -5 -6 -7 -8 -8 -9 -9 -10 -11 -12 -12 -13 -13 -13 -13 -13 -13 -13 -13 -13 -13 -12 -12 -11 -10 -10 -10 -9 -9 -9 -9 -8 -8 -8 -8 -7 -7 -6 -5
-3 -3 -4 -4 -5 -6 -7 -8 -8 -9 -9 -10 -11 -12 -12 -13 -13 -13 -13 -13 -13 -13 -13 -12 -12 -12 -11 -10 -10 -9 -10 -9 -9 -9 -9 -9 -9 -9 -8 -8 -7 -7 -7
-3 -3 -4 -5 -5 -6 -7 -8 -8 -8 -9 -10 -11 -12 -12 -13 -13 -13 -13 -13 -13 -13 -13 -12 -12 -11 -11 -10 -10 -10 -10 -10 -10 -10 -9 -9 -9 -9 -9 -8 -8 -7 -7
-3 -3 -4 -5 -6 -6 -7 -7 -8 -8 -9 -10 -11 -12 -12 -13 -13 -13 -13 -13 -13 -13 -13 -12 -12 -12 -11 -10 -11 -11 -10 -10 -10 -10 -10 -10 -10 -9 -9 -9 -9 -8 -7
-3 -4 -4 -5 -6 -6 -7 -7 -7 -8 -9 -10 -11 -11 -12 -13 -13 -13 -13 -13 -13 -13 -13 -13 -12 -12 -12 -11 -11 -11 -11 -11 -11 -11 -11 -11 -10 -10 -10 -9 -9 -9 -8
-3 -4 -4 -5 -5 -6 -6 -7 -7 -8 -9 -10 -10 -11 -12 -12 -13 -13 -13 -13 -13 -13 -13 -13 -13 -13 -12 -12 -11 -12 -12 -12 -12 -12 -11 -11 -11 -11 -11 -10 -10 -10 -9
-3 -4 -4 -5 -5 -6 -6 -7 -7 -8 -9 -9 -10 -11 -12 -12 -13 -13 -13 -13 -13 -13 -13 -13 -13 -13 -13 -12 -12 -12 -13 -12 -13 -13 -13 -13 -12 -12 -11 -11 -11 -11 -10
-4 -4 -4 -5 -5 -6 -6 -6 -7 -8 -8 -9 -9 -10 -11 -12 -12 -12 -13 -13 -13 -13 -13 -13 -13 -13 -13 -13 -13 -13 -13 -13 -13 -14 -14 -13 -13 -12 -12 -12 -12 -11 -10
-4 -4 -4 -5 -5 -6 -6 -6 -7 -7 -8 -8 -9 -10 -11 -11 -12 -12 -13 -13 -13 -13 -13 -13 -13 -13 -13 -13 -13 -13 -13 -14 -13 -13 -14 -14 -14 -13 -12 -12 -11 -11 -11
-3 -4 -4 -5 -5 -6 -6 -6 -7 -7 -8 -8 -9 -9 -10 -11 -11 -12 -12 -13 -13 -13 -13 -13 -13 -13 -13 -13 -13 -13 -13 -14 -13 -13 -13 -13 -13 -13 -13 -12 -12 -12 -12
-3 -4 -4 -4 -5 -5 -6 -6 -7 -7 -7 -8 -8 -9 -10 -10 -10 -11 -12 -12 -13 -13 -13 -13 -13 -13 -13 -13 -13 -13 -13 -14 -14 -13 -13 -14 -14 -14 -14 -13 -13 -13 -12
-3 -4 -4 -4 -5 -5 -6 -6 -7 -7 -7 -8 -8 -9 -10 -10 -10 -10 -10 -11 -12 -12 -13 -13 -13 -13 -13 -13 -13 -13 -14 -14 -14 -14 -14 -14 -14 -15 -14 -14 -14 -14 -13

GEFSMW_850_meantemp_042.txt.gz
Temperature
2 2 1 -0 -1 -1 -1 -0 -0 -1 -1 -2 -3 -3 -4 -5 -5 -6 -7 -7 -8 -9 -9 -10 -10 -10 -11 -11 -10 -10 -10 -10 -10 -9 -7 -4 -3 -3 -4 -3 -3 -2 -1
2 1 0 -1 -1 -1 -0 -0 -1 -2 -3 -4 -4 -5 -5 -5 -6 -7 -7 -8 -9 -9 -10 -11 -11 -11 -12 -11 -11 -11 -11 -11 -11 -11 -11 -9 -7 -5 -4 -4 -4 -3 -2
2 1 -0 -1 -1 -1 -1 -1 -2 -3 -3 -4 -5 -5 -5 -5 -6 -7 -8 -9 -10 -10 -11 -11 -12 -12 -12 -13 -12 -12 -12 -12 -12 -12 -12 -10 -9 -9 -7 -6 -5 -5 -4
1 0 -0 -1 -1 -1 -1 -2 -2 -3 -4 -4 -5 -5 -6 -7 -7 -8 -9 -10 -10 -11 -11 -12 -12 -13 -13 -13 -13 -13 -13 -13 -13 -12 -12 -11 -11 -10 -8 -8 -7 -6 -5
1 0 -1 -1 -1 -1 -1 -2 -3 -3 -4 -5 -5 -6 -7 -8 -8 -9 -10 -10 -11 -11 -12 -12 -13 -13 -13 -13 -13 -13 -13 -13 -13 -13 -12 -11 -11 -10 -10 -9 -8 -7 -6
1 0 -1 -1 -1 -2 -2 -2 -3 -4 -4 -5 -6 -7 -7 -8 -9 -10 -11 -11 -12 -12 -12 -13 -13 -13 -13 -13 -14 -14 -14 -13 -13 -13 -12 -12 -11 -10 -10 -9 -9 -8 -7
0 -0 -1 -1 -1 -1 -2 -2 -3 -4 -5 -5 -6 -7 -8 -9 -10 -11 -12 -12 -12 -12 -12 -13 -13 -13 -13 -13 -14 -14 -14 -13 -13 -12 -12 -11 -11 -10 -10 -9 -9 -8 -7
0 -0 -1 -2 -2 -2 -2 -3 -4 -4 -5 -6 -7 -7 -9 -10 -11 -11 -12 -12 -13 -13 -13 -13 -13 -13 -13 -13 -14 -14 -13 -13 -13 -12 -11 -11 -10 -10 -9 -9 -9 -8 -7
-0 -1 -2 -2 -2 -2 -3 -4 -4 -5 -5 -6 -7 -8 -9 -10 -11 -12 -12 -12 -12 -12 -12 -13 -13 -13 -13 -13 -13 -13 -13 -13 -12 -11 -11 -10 -10 -9 -9 -9 -9 -8 -8
-0 -1 -2 -2 -2 -3 -4 -4 -5 -5 -6 -6 -7 -8 -9 -10 -11 -12 -12 -12 -12 -12 -12 -12 -12 -13 -13 -13 -13 -13 -12 -12 -11 -11 -10 -10 -9 -9 -9 -8 -8 -8 -8
-1 -1 -2 -2 -2 -3 -4 -4 -5 -5 -6 -6 -7 -8 -9 -10 -11 -12 -12 -12 -12 -12 -12 -12 -12 -12 -12 -12 -12 -12 -11 -11 -11 -10 -10 -9 -9 -9 -8 -8 -8 -8 -8
-1 -1 -2 -2 -3 -3 -4 -4 -5 -5 -6 -6 -7 -8 -10 -10 -11 -12 -12 -12 -12 -12 -11 -11 -11 -11 -11 -11 -11 -11 -11 -10 -10 -10 -9 -9 -9 -9 -8 -8 -8 -8 -8
-1 -1 -2 -2 -3 -4 -4 -5 -5 -5 -6 -7 -7 -8 -9 -10 -11 -12 -12 -12 -12 -12 -11 -11 -11 -10 -10 -10 -10 -10 -10 -10 -10 -10 -9 -9 -9 -9 -9 -8 -8 -8 -8
-1 -2 -2 -3 -3 -4 -4 -5 -5 -5 -6 -7 -7 -8 -10 -10 -11 -12 -12 -12 -12 -12 -11 -11 -11 -10 -10 -10 -10 -10 -10 -10 -10 -10 -10 -10 -9 -9 -9 -9 -9 -9 -8
-1 -2 -2 -3 -3 -4 -4 -5 -5 -5 -6 -7 -7 -8 -9 -10 -11 -11 -12 -12 -12 -12 -12 -11 -11 -10 -10 -10 -10 -10 -10 -10 -10 -10 -10 -10 -10 -10 -10 -9 -9 -9 -9
-1 -2 -2 -3 -3 -4 -4 -4 -5 -5 -6 -7 -8 -8 -9 -10 -11 -11 -12 -12 -12 -12 -12 -12 -11 -11 -10 -10 -11 -11 -11 -11 -11 -11 -11 -10 -10 -10 -10 -10 -10 -10 -9
-1 -2 -2 -3 -3 -4 -4 -4 -5 -5 -6 -7 -7 -8 -9 -10 -11 -11 -12 -12 -12 -12 -12 -12 -12 -11 -11 -10 -11 -12 -12 -12 -12 -12 -12 -11 -11 -11 -10 -10 -10 -10 -10
-1 -2 -2 -3 -3 -4 -4 -5 -5 -5 -6 -7 -7 -8 -9 -10 -10 -11 -12 -12 -12 -13 -13 -13 -12 -12 -12 -11 -11 -12 -12 -12 -12 -12 -12 -12 -12 -11 -11 -11 -10 -10 -10
-1 -2 -2 -3 -3 -4 -4 -5 -5 -5 -6 -7 -7 -8 -9 -9 -10 -11 -11 -12 -12 -13 -13 -13 -13 -13 -12 -12 -11 -12 -12 -12 -13 -13 -13 -13 -12 -12 -12 -11 -11 -11 -10
-1 -2 -2 -3 -3 -4 -4 -5 -5 -5 -6 -7 -8 -8 -9 -9 -10 -10 -11 -11 -12 -13 -13 -13 -13 -13 -13 -12 -12 -12 -13 -13 -13 -13 -13 -13 -13 -12 -12 -12 -12 -12 -11
-1 -2 -2 -3 -3 -4 -4 -5 -5 -5 -6 -7 -7 -8 -9 -9 -10 -10 -11 -11 -11 -12 -12 -12 -13 -13 -13 -13 -12 -12 -13 -13 -13 -14 -14 -14 -13 -13 -13 -13 -13 -12 -11
-1 -1 -2 -2 -3 -4 -4 -4 -5 -5 -6 -7 -7 -8 -8 -9 -9 -10 -10 -10 -11 -11 -12 -12 -12 -12 -12 -12 -12 -12 -12 -13 -13 -14 -14 -14 -14 -14 -14 -13 -13 -12 -11
-1 -1 -2 -2 -3 -3 -4 -4 -5 -5 -6 -6 -7 -7 -8 -9 -9 -10 -10 -10 -10 -11 -12 -12 -12 -12 -12 -12 -12 -12 -13 -13 -13 -14 -14 -14 -14 -14 -13 -14 -13 -12 -12
-1 -1 -2 -2 -3 -3 -4 -4 -5 -5 -5 -6 -6 -7 -7 -8 -8 -9 -10 -10 -10 -11 -11 -12 -12 -12 -11 -11 -11 -12 -12 -13 -13 -13 -13 -14 -14 -14 -14 -13 -13 -13 -13
-1 -1 -2 -2 -3 -3 -4 -4 -5 -5 -5 -6 -6 -6 -7 -7 -7 -8 -9 -10 -10 -11 -11 -11 -11 -12 -11 -11 -11 -11 -12 -12 -13 -13 -13 -14 -14 -14 -14 -14 -14 -13 -13
-1 -1 -2 -2 -3 -3 -4 -4 -4 -5 -5 -5 -6 -6 -6 -6 -7 -7 -7 -8 -9 -10 -11 -11 -11 -11 -11 -11 -11 -11 -12 -12 -13 -13 -13 -14 -14 -14 -14 -14 -14 -14 -14

GEFSMW_850_meantemp_048.txt.gz
Temperature
4 2 1 1 1 1 1 -0 -0 -1 -1 -1 -1 -2 -3 -3 -4 -5 -6 -7 -8 -9 -10 -10 -11 -11 -11 -11 -12 -12 -11 -11 -11 -11 -10 -9 -8 -6 -5 -5 -5 -4 -4
4 1 1 1 1 1 0 -0 -1 -1 -1 -2 -2 -3 -4 -5 -6 -6 -7 -8 -9 -9 -10 -11 -11 -12 -12 -12 -12 -12 -12 -12 -12 -11 -11 -10 -8 -5 -6 -6 -5 -5 -4
4 2 1 1 1 1 0 -0 -1 -1 -2 -2 -3 -3 -4 -6 -7 -7 -7 -8 -9 -10 -10 -11 -11 -12 -12 -12 -12 -12 -12 -12 -12 -12 -12 -11 -9 -10 -8 -6 -6 -5 -5
4 2 1 1 1 1 0 -1 -1 -2 -2 -3 -3 -4 -5 -6 -7 -8 -8 -9 -9 -10 -10 -11 -12 -12 -12 -12 -12 -12 -13 -13 -12 -12 -12 -12 -12 -11 -10 -8 -7 -6 -6
4 2 1 1 1 1 -0 -1 -1 -2 -2 -3 -4 -4 -6 -6 -7 -8 -9 -9 -9 -10 -10 -11 -11 -11 -12 -12 -12 -12 -12 -13 -13 -12 -12 -12 -12 -11 -11 -9 -8 -7 -6
3 2 1 1 1 0 -0 -1 -2 -2 -3 -3 -4 -5 -6 -7 -7 -8 -9 -10 -10 -10 -10 -11 -11 -11 -11 -12 -12 -12 -12 -12 -13 -12 -12 -12 -12 -11 -10 -10 -9 -8 -7
2 1 1 1 1 0 -1 -1 -2 -2 -3 -3 -4 -5 -6 -7 -8 -9 -10 -10 -10 -10 -10 -10 -11 -11 -11 -11 -11 -12 -12 -12 -12 -12 -12 -12 -12 -11 -11 -10 -9 -8 -7
1 1 1 1 0 -0 -1 -1 -2 -2 -3 -4 -5 -6 -7 -7 -8 -9 -10 -10 -11 -11 -11 -11 -11 -11 -11 -11 -11 -11 -11 -12 -12 -12 -12 -12 -11 -11 -11 -10 -9 -8 -7
1 1 1 1 0 -0 -1 -1 -2 -3 -3 -4 -5 -6 -7 -8 -8 -9 -10 -10 -11 -11 -11 -11 -11 -11 -11 -11 -11 -11 -11 -11 -11 -11 -11 -11 -10 -10 -10 -9 -9 -9 -8
1 0 1 1 0 -0 -1 -1 -2 -3 -3 -4 -5 -6 -7 -7 -8 -9 -10 -10 -11 -11 -11 -11 -11 -11 -10 -10 -10 -11 -10 -10 -10 -10 -10 -10 -10 -10 -9 -9 -9 -8 -8
1 1 1 1 0 -0 -1 -2 -2 -3 -4 -4 -5 -6 -7 -8 -8 -9 -10 -10 -11 -11 -11 -11 -11 -11 -11 -11 -11 -11 -11 -10 -10 -10 -10 -10 -10 -9 -9 -9 -9 -8 -8
1 1 1 1 0 -1 -1 -2 -3 -3 -4 -4 -5 -6 -7 -8 -9 -9 -10 -10 -11 -11 -11 -11 -11 -11 -11 -11 -11 -11 -11 -11 -11 -11 -10 -10 -10 -10 -9 -9 -9 -9 -8
1 1 1 0 -0 -1 -1 -2 -3 -3 -4 -5 -5 -6 -7 -8 -8 -9 -10 -10 -11 -11 -11 -12 -11 -11 -11 -11 -11 -11 -11 -11 -11 -11 -11 -11 -10 -10 -10 -9 -9 -9 -9
1 1 1 0 -0 -1 -2 -2 -3 -3 -4 -5 -5 -6 -7 -8 -8 -9 -9 -10 -11 -11 -12 -12 -12 -11 -11 -11 -11 -11 -11 -11 -11 -12 -12 -11 -11 -10 -10 -10 -9 -9 -9
0 1 1 1 -0 -1 -2 -2 -3 -3 -4 -5 -5 -6 -7 -7 -8 -9 -9 -10 -10 -11 -11 -12 -12 -11 -11 -10 -11 -11 -11 -11 -12 -12 -12 -12 -11 -11 -10 -10 -10 -10 -10
1 1 1 1 -0 -1 -2 -2 -3 -3 -4 -5 -5 -6 -7 -7 -8 -8 -9 -9 -10 -11 -11 -11 -11 -11 -11 -11 -10 -11 -11 -12 -12 -12 -12 -12 -12 -11 -11 -11 -11 -11 -10
3 2 2 1 0 -1 -1 -2 -3 -3 -4 -5 -5 -6 -7 -7 -8 -8 -9 -9 -10 -10 -11 -11 -11 -11 -11 -11 -11 -11 -11 -12 -12 -13 -13 -12 -12 -11 -11 -11 -11 -11 -11
4 3 2 1 0 -1 -1 -2 -3 -3 -4 -5 -5 -6 -6 -7 -7 -8 -8 -9 -9 -10 -10 -11 -11 -11 -11 -11 -11 -11 -11 -11 -12 -12 -13 -13 -12 -11 -11 -12 -12 -11 -11
5 4 2 1 0 -1 -1 -2 -3 -3 -4 -5 -5 -6 -6 -6 -7 -7 -8 -9 -9 -9 -10 -11 -11 -11 -11 -10 -11 -10 -11 -11 -12 -12 -12 -13 -12 -12 -11 -12 -12 -12 -11
5 3 2 1 -0 -1 -1 -2 -3 -3 -4 -5 -5 -5 -6 -6 -7 -7 -8 -8 -9 -9 -10 -10 -10 -10 -10 -10 -10 -10 -10 -11 -11 -12 -12 -13 -12 -12 -12 -12 -12 -12 -12
4 3 1 1 -0 -1 -1 -2 -3 -3 -4 -4 -5 -5 -5 -6 -6 -6 -7 -8 -8 -9 -10 -10 -10 -10 -10 -10 -10 -10 -10 -11 -11 -12 -12 -13 -13 -13 -13 -13 -13 -12 -12
4 2 1 0 -0 -1 -1 -2 -3 -3 -4 -4 -5 -5 -5 -5 -6 -6 -6 -7 -8 -8 -10 -10 -10 -10 -10 -10 -10 -10 -10 -11 -11 -12 -12 -13 -13 -13 -13 -13 -13 -13 -12
4 3 1 0 -0 -1 -1 -2 -3 -3 -4 -4 -4 -5 -5 -5 -5 -6 -6 -6 -7 -8 -10 -10 -10 -10 -10 -10 -10 -10 -10 -11 -11 -12 -12 -13 -13 -13 -13 -13 -13 -13 -13
4 3 1 0 -0 -1 -1 -2 -3 -3 -3 -4 -4 -4 -5 -5 -5 -5 -6 -6 -7 -8 -10 -11 -11 -11 -10 -10 -10 -10 -10 -11 -11 -12 -12 -13 -13 -13 -13 -13 -13 -13 -13
5 3 2 1 0 -1 -1 -2 -2 -3 -3 -4 -4 -4 -4 -5 -5 -5 -6 -6 -7 -8 -10 -10 -11 -11 -11 -10 -10 -10 -11 -11 -11 -12 -12 -12 -13 -13 -13 -13 -13 -13 -13
5 4 2 1 0 -1 -1 -2 -2 -3 -3 -4 -4 -4 -4 -4 -5 -5 -5 -6 -6 -7 -8 -9 -10 -11 -11 -11 -11 -11 -11 -11 -11 -11 -12 -12 -13 -13 -13 -13 -13 -13 -13